Torna al catalogo

CZ-4B DEB

AttivoLEO
NORAD 40531·DEBRIS·🇨🇳 China

Lanciato Oct 25, 2013 da Jiuquan Satellite Launch Center

Loading…

Prossimi Passaggi (prossime 24 ore)

TLE

AggiornatoSource: Space-Track

Epoca: Sep 13, 2026, 04:12 UTC

1 40531U 13057D   26256.17529307  .00001936  00000-0  33706-3 0  9995
2 40531  74.9656  75.6511 0179366  45.0153 316.5394 14.58573471604643

Traccia CZ-4B DEB in tempo reale con AllMySat

Download on the App Store